Location: Newark
(44.3299°N, 23.7597°E)
Time: 04:05:59
(UTC+00:00)

Envisat - Pass Details

Date: 03 February 2022
Orbit: 764 x 765 km, 98.2° (Epoch: 21 May)

Event Time Altitude Azimuth Distance (km) Brightness Sun altitude
Rises 02:39:45 0° 21° (NNE) 3,241 6.6 -32.6°
Reaches altitude 10° 02:42:15 10° 30° (NNE) 2,310 5.9 -32.2°
Maximum altitude 02:46:56 36° 97° (E) 1,191 4.4 -31.4°
Drops below altitude 10° 02:51:35 10° 164° (SSE) 2,296 5.5 -30.5°
Sets 02:54:03 0° 172° (S) 3,217 6.3 -30.1°
